Regional Weather Roundup
Issued by NWS

Home | Current Version | Previous Version | Text Only | Print | Product List | Glossary On
Versions: 1 2 3 4 5 6 7 8 9 10 11 12 13 14 15 16 17 18 19 20 21 22 23 24 25 26 27 28 29 30 31 32 33 34 35 36 37 38 39 40 41 42 43 44 45 46 47 48 49 50
000
ASUS43 KBIS 270001
RWRND

NORTH DAKOTA REGIONAL WEATHER ROUNDUP
NATIONAL WEATHER SERVICE BISMARCK ND
600 PM CST THU FEB 26 2015

NOTE: "FAIR" INDICATES FEW OR NO CLOUDS BELOW 12,000 FEET WITH NO
SIGNIFICANT WEATHER AND/OR OBSTRUCTIONS TO VISIBILITY.


NDZ001>003-009>011-017-270100-
NORTHWEST NORTH DAKOTA

CITY           SKY/WX    TMP DP  RH WIND       PRES   REMARKS
WILLISTON      CLEAR      8  -6  52 N3        30.51F
6HR MIN TEMP:   2; 6HR MAX TEMP:  10;

MINOT          CLEAR      2  -9  60 W13       30.51F WCI -15
MINOT AFB      CLEAR     -1  -8  71 NW9       30.51F WCI -16
$$

NDZ018>021-031>035-040>046-270100-
SOUTHWEST NORTH DAKOTA

CITY           SKY/WX    TMP DP  RH WIND       PRES   REMARKS
BISMARCK       CLEAR      8  -5  55 N8        30.53S WCI  -4
6HR MIN TEMP:   3; 6HR MAX TEMP:  10;

DICKINSON      CLEAR      9  -5  53 N6        30.42F WCI  -1
GARRISON         N/A      2  -6  69 NW8       30.50F WCI -12
6HR MIN TEMP:  -3; 6HR MAX TEMP:   6;

HETTINGER ARPT CLEAR     10  -3  55 N6        30.43F WCI   0
$$

NDZ004>008-012>016-024-026-027-054-270100-
NORTHEAST NORTH DAKOTA

CITY           SKY/WX    TMP DP  RH WIND       PRES   REMARKS
GRAND FORKS    CLEAR      5  -6  60 NW8       30.51F WCI  -8
GRND FRKS AFB  CLEAR      5  -6  58 NW9       30.51F WCI  -9
DEVILS LAKE    CLEAR    N/A N/A N/A MISG        N/A
$$

NDZ022-023-025-028>030-036>039-047>053-270100-
SOUTHEAST NORTH DAKOTA

CITY           SKY/WX    TMP DP  RH WIND       PRES   REMARKS
FARGO          PTCLDY     6  -4  63 NW6       30.53S WCI  -4
6HR MIN TEMP:   2; 6HR MAX TEMP:   9;

JAMESTOWN      CLEAR      1  -9  62 NW13      30.50S WCI -17
$$



USA.gov is the U.S. government's official web portal to all federal, state and local government web resources and services.